| time (UTC) | temp C | wind direction | speed KPH | gust KPH | rain 1hr cm | rain 24hr cm | rain mn cm | humidity % | barometer mb |
| 20260507144908 | 22 | 231 | 12.9 | 27.4 | 0.00 | 0.00 | 0.00 | 46 | 1008.3 |
| 20260507144409 | 23 | 236 | 12.9 | 25.7 | 0.00 | 0.00 | 0.00 | 45 | 1008.4 |
| 20260507143909 | 22 | 230 | 11.3 | 25.7 | 0.00 | 0.00 | 0.00 | 45 | 1008.3 |
| 20260507143409 | 22 | 228 | 11.3 | 25.7 | 0.00 | 0.00 | 0.00 | 47 | 1008.4 |
| 20260507142910 | 22 | 240 | 11.3 | 24.1 | 0.00 | 0.00 | 0.00 | 46 | 1008.4 |
| 20260507142408 | 22 | 235 | 14.5 | 33.8 | 0.00 | 0.00 | 0.00 | 47 | 1008.4 |
| 20260507141909 | 22 | 233 | 14.5 | 33.8 | 0.00 | 0.00 | 0.00 | 48 | 1008.3 |
| 20260507141408 | 22 | 243 | 9.7 | 20.9 | 0.00 | 0.00 | 0.00 | 47 | 1008.5 |
| 20260507140909 | 22 | 243 | 12.9 | 24.1 | 0.00 | 0.00 | 0.00 | 49 | 1008.4 |
| 20260507140408 | 22 | 231 | 16.1 | 27.4 | 0.00 | 0.00 | 0.00 | 49 | 1008.5 |
| 20260507135908 | 22 | 225 | 16.1 | 27.4 | 0.00 | 0.00 | 0.00 | 49 | 1008.6 |
| 20260507134909 | 22 | 237 | 12.9 | 32.2 | 0.00 | 0.00 | 0.00 | 51 | 1008.7 |
| 20260507134408 | 22 | 230 | 14.5 | 27.4 | 0.00 | 0.00 | 0.00 | 50 | 1008.7 |
| 20260507133909 | 22 | 222 | 12.9 | 27.4 | 0.00 | 0.00 | 0.00 | 50 | 1008.7 |
| 20260507133408 | 22 | 229 | 14.5 | 27.4 | 0.00 | 0.00 | 0.00 | 49 | 1008.8 |
| 20260507132909 | 21 | 233 | 16.1 | 27.4 | 0.00 | 0.00 | 0.00 | 50 | 1008.9 |
| 20260507132409 | 21 | 228 | 16.1 | 27.4 | 0.00 | 0.00 | 0.00 | 49 | 1009.0 |
| 20260507131909 | 21 | 229 | 17.7 | 35.4 | 0.00 | 0.00 | 0.00 | 51 | 1008.9 |
| 20260507131408 | 21 | 233 | 16.1 | 35.4 | 0.00 | 0.00 | 0.00 | 51 | 1009.0 |
| 20260507130909 | 21 | 232 | 12.9 | 30.6 | 0.00 | 0.00 | 0.00 | 50 | 1009.0 |
| 20260507130408 | 21 | 223 | 12.9 | 30.6 | 0.00 | 0.00 | 0.00 | 52 | 1009.0 |
| 20260507125909 | 21 | 206 | 11.3 | 25.7 | 0.00 | 0.00 | 0.00 | 51 | 1009.0 |
| 20260507125409 | 21 | 198 | 12.9 | 25.7 | 0.00 | 0.00 | 0.00 | 53 | 1009.1 |
| 20260507124908 | 21 | 200 | 12.9 | 25.7 | 0.00 | 0.00 | 0.00 | 52 | 1009.1 |
| 20260507124409 | 21 | 217 | 14.5 | 30.6 | 0.00 | 0.00 | 0.00 | 54 | 1009.3 |
| 20260507123908 | 21 | 227 | 14.5 | 30.6 | 0.00 | 0.00 | 0.00 | 53 | 1009.3 |
| 20260507122910 | 21 | 219 | 14.5 | 32.2 | 0.00 | 0.00 | 0.00 | 53 | 1009.4 |
| 20260507122409 | 21 | 228 | 16.1 | 30.6 | 0.00 | 0.00 | 0.00 | 53 | 1009.4 |
| 20260507121408 | 21 | 222 | 14.5 | 29.0 | 0.00 | 0.00 | 0.00 | 53 | 1009.4 |
| 20260507120910 | 22 | 207 | 12.9 | 27.4 | 0.00 | 0.00 | 0.00 | 54 | 1009.4 |
| 20260507120408 | 22 | 194 | 12.9 | 27.4 | 0.00 | 0.00 | 0.00 | 53 | 1009.4 |
| 20260507115908 | 22 | 185 | 12.9 | 27.4 | 0.00 | 0.00 | 0.00 | 53 | 1009.3 |
| 20260507115408 | 21 | 182 | 12.9 | 27.4 | 0.00 | 0.00 | 0.00 | 52 | 1009.4 |
| 20260507114908 | 21 | 193 | 12.9 | 25.7 | 0.00 | 0.00 | 0.00 | 53 | 1009.5 |
| 20260507114409 | 21 | 199 | 12.9 | 25.7 | 0.00 | 0.00 | 0.00 | 54 | 1009.4 |
| 20260507113410 | 21 | 201 | 11.3 | 25.7 | 0.00 | 0.00 | 0.00 | 56 | 1009.5 |
| 20260507112908 | 21 | 201 | 9.7 | 25.7 | 0.00 | 0.00 | 0.00 | 58 | 1009.5 |
| 20260507112408 | 20 | 195 | 9.7 | 25.7 | 0.00 | 0.00 | 0.00 | 59 | 1009.5 |
| 20260507111908 | 20 | 203 | 11.3 | 29.0 | 0.00 | 0.00 | 0.00 | 59 | 1009.6 |
| 20260507111409 | 20 | 205 | 9.7 | 29.0 | 0.00 | 0.00 | 0.00 | 59 | 1009.6 |
| 20260507105909 | 20 | 207 | 9.7 | 19.3 | 0.00 | 0.00 | 0.00 | 59 | 1009.5 |
| 20260507105408 | 20 | 208 | 9.7 | 17.7 | 0.00 | 0.00 | 0.00 | 61 | 1009.6 |
| 20260507104908 | 20 | 208 | 9.7 | 22.5 | 0.00 | 0.00 | 0.00 | 60 | 1009.6 |
| 20260507104410 | 20 | 209 | 9.7 | 22.5 | 0.00 | 0.00 | 0.00 | 59 | 1009.6 |
| 20260507103908 | 20 | 205 | 9.7 | 25.7 | 0.00 | 0.00 | 0.00 | 59 | 1009.7 |
| 20260507103410 | 20 | 193 | 8.0 | 25.7 | 0.00 | 0.00 | 0.00 | 58 | 1009.7 |
| 20260507102908 | 21 | 196 | 8.0 | 22.5 | 0.00 | 0.00 | 0.00 | 60 | 1009.8 |
| 20260507102408 | 20 | 216 | 9.7 | 22.5 | 0.00 | 0.00 | 0.00 | 62 | 1009.8 |
| 20260507101908 | 20 | 214 | 9.7 | 22.5 | 0.00 | 0.00 | 0.00 | 62 | 1009.8 |
| 20260507101409 | 20 | 201 | 8.0 | 20.9 | 0.00 | 0.00 | 0.00 | 61 | 1009.7 |
| 20260507100909 | 20 | 187 | 9.7 | 20.9 | 0.00 | 0.00 | 0.00 | 63 | 1009.9 |
| 20260507095908 | 19 | 205 | 11.3 | 25.7 | 0.00 | 0.00 | 0.00 | 66 | 1009.8 |
| 20260507094909 | 19 | 178 | 11.3 | 25.7 | 0.00 | 0.00 | 0.00 | 65 | 1009.9 |
| 20260507094408 | 19 | 177 | 11.3 | 25.7 | 0.00 | 0.00 | 0.00 | 63 | 1010.0 |
| 20260507093909 | 20 | 174 | 9.7 | 22.5 | 0.00 | 0.00 | 0.00 | 65 | 1009.8 |
| 20260507093409 | 19 | 165 | 8.0 | 20.9 | 0.00 | 0.00 | 0.00 | 66 | 1009.8 |
| 20260507092908 | 20 | 170 | 9.7 | 29.0 | 0.00 | 0.00 | 0.00 | 66 | 1010.0 |
| 20260507092408 | 19 | 166 | 12.9 | 29.0 | 0.00 | 0.00 | 0.00 | 67 | 1009.9 |
| 20260507091408 | 19 | 164 | 12.9 | 22.5 | 0.00 | 0.00 | 0.00 | 66 | 1010.0 |
| 20260507090908 | 19 | 162 | 11.3 | 22.5 | 0.00 | 0.00 | 0.00 | 68 | 1009.9 |
| 20260507085908 | 18 | 165 | 11.3 | 29.0 | 0.00 | 0.00 | 0.00 | 72 | 1009.9 |
| 20260507084409 | 17 | 175 | 11.3 | 24.1 | 0.00 | 0.00 | 0.00 | 73 | 1009.9 |
| 20260507083909 | 17 | 166 | 11.3 | 24.1 | 0.00 | 0.00 | 0.00 | 73 | 1009.9 |
| 20260507083408 | 18 | 156 | 11.3 | 25.7 | 0.00 | 0.00 | 0.00 | 73 | 1009.8 |
| 20260507082908 | 18 | 158 | 11.3 | 25.7 | 0.00 | 0.00 | 0.00 | 73 | 1009.7 |
| 20260507082409 | 17 | 176 | 11.3 | 22.5 | 0.00 | 0.00 | 0.00 | 74 | 1009.7 |
| 20260507081909 | 17 | 174 | 11.3 | 24.1 | 0.00 | 0.00 | 0.00 | 73 | 1009.8 |
| 20260507081409 | 17 | 167 | 11.3 | 24.1 | 0.00 | 0.00 | 0.00 | 73 | 1009.8 |
| 20260507080408 | 17 | 166 | 9.7 | 22.5 | 0.00 | 0.00 | 0.00 | 73 | 1009.8 |
| 20260507075908 | 17 | 160 | 11.3 | 22.5 | 0.00 | 0.00 | 0.00 | 74 | 1009.8 |
| 20260507075408 | 16 | 158 | 11.3 | 24.1 | 0.00 | 0.00 | 0.00 | 74 | 1009.7 |
| 20260507074908 | 16 | 158 | 9.7 | 24.1 | 0.00 | 0.00 | 0.00 | 74 | 1009.7 |
| 20260507074408 | 16 | 159 | 9.7 | 22.5 | 0.00 | 0.00 | 0.00 | 74 | 1009.6 |
| 20260507073408 | 16 | 158 | 9.7 | 20.9 | 0.00 | 0.00 | 0.00 | 74 | 1009.5 |
| 20260507072909 | 16 | 151 | 8.0 | 19.3 | 0.00 | 0.00 | 0.00 | 75 | 1009.5 |
| 20260507072409 | 16 | 147 | 6.4 | 14.5 | 0.00 | 0.00 | 0.00 | 75 | 1009.4 |
| 20260507071907 | 15 | 143 | 6.4 | 16.1 | 0.00 | 0.00 | 0.00 | 75 | 1009.3 |
| 20260507071408 | 15 | 138 | 6.4 | 16.1 | 0.00 | 0.00 | 0.00 | 76 | 1009.3 |
| 20260507070908 | 15 | 142 | 6.4 | 14.5 | 0.00 | 0.00 | 0.00 | 76 | 1009.3 |
| 20260507070408 | 15 | 142 | 6.4 | 14.5 | 0.00 | 0.00 | 0.00 | 76 | 1009.3 |
| 20260507065908 | 14 | 137 | 6.4 | 14.5 | 0.00 | 0.00 | 0.00 | 76 | 1009.2 |
| 20260507065408 | 14 | 136 | 4.8 | 12.9 | 0.00 | 0.00 | 0.00 | 76 | 1009.2 |
| 20260507064908 | 14 | 131 | 4.8 | 12.9 | 0.00 | 0.00 | 0.00 | 76 | 1009.2 |
| 20260507064409 | 13 | 130 | 4.8 | 12.9 | 0.00 | 0.00 | 0.00 | 76 | 1009.2 |
| 20260507063908 | 13 | 135 | 4.8 | 12.9 | 0.00 | 0.00 | 0.00 | 76 | 1009.2 |
| 20260507063408 | 13 | 136 | 4.8 | 12.9 | 0.00 | 0.00 | 0.00 | 76 | 1009.2 |
| 20260507062907 | 13 | 134 | 3.2 | 12.9 | 0.00 | 0.00 | 0.00 | 77 | 1009.2 |
| 20260507062408 | 13 | 136 | 3.2 | 12.9 | 0.00 | 0.00 | 0.00 | 78 | 1009.1 |
| 20260507061908 | 13 | 140 | 4.8 | 12.9 | 0.00 | 0.00 | 0.00 | 78 | 1009.1 |
| 20260507060908 | 13 | 128 | 3.2 | 14.5 | 0.00 | 0.00 | 0.00 | 79 | 1008.9 |
| 20260507060408 | 12 | 110 | 4.8 | 9.7 | 0.00 | 0.00 | 0.00 | 80 | 1008.9 |
| 20260507055909 | 12 | 108 | 3.2 | 9.7 | 0.00 | 0.00 | 0.00 | 80 | 1008.7 |
| 20260507055408 | 12 | 106 | 3.2 | 6.4 | 0.00 | 0.00 | 0.00 | 81 | 1008.8 |
| 20260507054909 | 12 | 109 | 4.8 | 9.7 | 0.00 | 0.00 | 0.00 | 81 | 1008.8 |
| 20260507054408 | 12 | 120 | 3.2 | 9.7 | 0.00 | 0.00 | 0.00 | 81 | 1008.8 |
| 20260507053909 | 12 | 135 | 1.6 | 6.4 | 0.00 | 0.00 | 0.00 | 81 | 1008.9 |
| 20260507052908 | 12 | 139 | 1.6 | 4.8 | 0.00 | 0.00 | 0.00 | 81 | 1008.8 |
| 20260507052409 | 13 | 140 | 0.0 | 4.8 | 0.00 | 0.00 | 0.00 | 80 | 1008.8 |
| 20260507051908 | 13 | 0 | 0.0 | 0.0 | 0.00 | 0.00 | 0.00 | 80 | 1008.9 |
| 20260507051407 | 13 | 0 | 0.0 | 0.0 | 0.00 | 0.00 | 0.00 | 80 | 1008.8 |
| 20260507050908 | 13 | 146 | 0.0 | 4.8 | 0.00 | 0.00 | 0.00 | 79 | 1008.7 |
| 20260507045907 | 13 | 146 | 1.6 | 6.4 | 0.00 | 0.00 | 0.00 | 79 | 1008.7 |
| 20260507045408 | 13 | 146 | 1.6 | 6.4 | 0.00 | 0.00 | 0.00 | 79 | 1008.6 |
| 20260507044907 | 13 | 147 | 0.0 | 4.8 | 0.00 | 0.00 | 0.00 | 80 | 1008.6 |
| 20260507044409 | 13 | 147 | 0.0 | 4.8 | 0.00 | 0.00 | 0.00 | 80 | 1008.5 |
| 20260507043408 | 13 | 150 | 1.6 | 9.7 | 0.00 | 0.00 | 0.00 | 80 | 1008.4 |
| 20260507042908 | 13 | 146 | 3.2 | 9.7 | 0.00 | 0.00 | 0.00 | 80 | 1008.4 |
| 20260507041909 | 13 | 142 | 3.2 | 8.0 | 0.00 | 0.00 | 0.00 | 81 | 1008.3 |
| 20260507041407 | 13 | 143 | 3.2 | 8.0 | 0.00 | 0.00 | 0.00 | 81 | 1008.3 |
| 20260507040908 | 13 | 156 | 3.2 | 8.0 | 0.00 | 0.00 | 0.00 | 81 | 1008.3 |
| 20260507040409 | 13 | 165 | 3.2 | 9.7 | 0.00 | 0.00 | 0.00 | 81 | 1008.3 |
| 20260507035907 | 13 | 164 | 4.8 | 9.7 | 0.00 | 0.00 | 0.00 | 82 | 1008.3 |
| 20260507035408 | 13 | 159 | 4.8 | 12.9 | 0.00 | 0.00 | 0.00 | 81 | 1008.2 |
| 20260507034908 | 13 | 154 | 4.8 | 12.9 | 0.00 | 0.00 | 0.00 | 82 | 1008.2 |
| 20260507034408 | 13 | 153 | 3.2 | 9.7 | 0.00 | 0.00 | 0.00 | 82 | 1008.3 |
| 20260507033907 | 13 | 157 | 3.2 | 9.7 | 0.00 | 0.00 | 0.00 | 81 | 1008.3 |
| 20260507033408 | 13 | 160 | 1.6 | 8.0 | 0.00 | 0.00 | 0.00 | 81 | 1008.4 |
| 20260507032908 | 13 | 155 | 1.6 | 8.0 | 0.00 | 0.00 | 0.00 | 81 | 1008.3 |
| 20260507032407 | 13 | 151 | 3.2 | 8.0 | 0.00 | 0.00 | 0.00 | 81 | 1008.3 |
| 20260507031908 | 13 | 152 | 3.2 | 8.0 | 0.00 | 0.00 | 0.00 | 82 | 1008.2 |
| 20260507031407 | 13 | 150 | 3.2 | 8.0 | 0.00 | 0.00 | 0.00 | 82 | 1008.2 |
| 20260507030409 | 13 | 160 | 6.4 | 14.5 | 0.00 | 0.00 | 0.00 | 81 | 1007.9 |
| 20260507025908 | 13 | 160 | 6.4 | 14.5 | 0.00 | 0.00 | 0.00 | 81 | 1007.9 |
| 20260507025408 | 13 | 158 | 6.4 | 12.9 | 0.00 | 0.00 | 0.00 | 81 | 1007.9 |
| 20260507024907 | 13 | 154 | 6.4 | 12.9 | 0.00 | 0.00 | 0.00 | 81 | 1008.0 |
| 20260507024408 | 13 | 154 | 4.8 | 12.9 | 0.00 | 0.00 | 0.00 | 81 | 1007.9 |
| 20260507023408 | 14 | 159 | 4.8 | 12.9 | 0.00 | 0.00 | 0.00 | 81 | 1007.9 |
| 20260507022908 | 14 | 161 | 4.8 | 11.3 | 0.00 | 0.00 | 0.00 | 81 | 1007.9 |
| 20260507022408 | 14 | 159 | 4.8 | 12.9 | 0.00 | 0.00 | 0.00 | 81 | 1007.9 |
| 20260507021908 | 14 | 159 | 6.4 | 12.9 | 0.00 | 0.00 | 0.00 | 81 | 1008.0 |
| 20260507021409 | 14 | 159 | 6.4 | 14.5 | 0.00 | 0.00 | 0.00 | 80 | 1007.9 |
| 20260507020907 | 14 | 160 | 6.4 | 14.5 | 0.00 | 0.00 | 0.00 | 80 | 1008.0 |
| 20260507020409 | 14 | 168 | 6.4 | 6.4 | 0.00 | 0.00 | 0.00 | 80 | 1008.1 |
| 20260507014909 | 14 | 157 | 8.0 | 17.7 | 0.00 | 0.00 | 0.00 | 80 | 1008.3 |
| 20260507014409 | 14 | 158 | 6.4 | 14.5 | 0.00 | 0.00 | 0.00 | 80 | 1008.3 |
| 20260507013909 | 14 | 157 | 8.0 | 14.5 | 0.00 | 0.00 | 0.00 | 80 | 1008.3 |
| 20260507013409 | 14 | 155 | 6.4 | 14.5 | 0.00 | 0.00 | 0.00 | 79 | 1008.3 |
| 20260507012410 | 14 | 157 | 8.0 | 14.5 | 0.00 | 0.00 | 0.00 | 79 | 1008.3 |
| 20260507011909 | 14 | 157 | 8.0 | 14.5 | 0.00 | 0.00 | 0.00 | 78 | 1008.4 |
| 20260507010409 | 14 | 160 | 6.4 | 14.5 | 0.00 | 0.00 | 0.00 | 77 | 1008.5 |
| 20260507005910 | 14 | 155 | 6.4 | 14.5 | 0.00 | 0.00 | 0.00 | 77 | 1008.6 |
| 20260507005410 | 14 | 160 | 6.4 | 14.5 | 0.00 | 0.00 | 0.00 | 77 | 1008.7 |
| 20260507004909 | 15 | 165 | 3.2 | 14.5 | 0.00 | 0.00 | 0.00 | 76 | 1008.9 |
| 20260507004409 | 15 | 166 | 3.2 | 8.0 | 0.00 | 0.00 | 0.00 | 76 | 1008.9 |
| 20260507003909 | 15 | 162 | 4.8 | 11.3 | 0.00 | 0.00 | 0.00 | 76 | 1008.7 |
| 20260507003409 | 15 | 156 | 4.8 | 14.5 | 0.00 | 0.00 | 0.00 | 76 | 1008.8 |
| 20260507002409 | 15 | 156 | 6.4 | 11.3 | 0.00 | 0.00 | 0.00 | 75 | 1008.9 |
| 20260507001409 | 15 | 173 | 3.2 | 9.7 | 0.00 | 0.00 | 0.00 | 74 | 1009.0 |
| 20260507000909 | 15 | 173 | 3.2 | 9.7 | 0.00 | 0.00 | 0.00 | 74 | 1009.0 |
| 20260506235909 | 15 | 165 | 4.8 | 9.7 | 0.00 | 0.00 | 0.00 | 74 | 1009.0 |
| 20260506235410 | 15 | 160 | 4.8 | 9.7 | 0.00 | 0.00 | 0.00 | 74 | 1009.2 |
| 20260506234910 | 15 | 164 | 6.4 | 12.9 | 0.00 | 0.00 | 0.00 | 74 | 1009.2 |
| 20260506234408 | 15 | 165 | 8.0 | 12.9 | 0.00 | 0.00 | 0.00 | 74 | 1009.2 |
| 20260506233909 | 15 | 166 | 6.4 | 12.9 | 0.00 | 0.00 | 0.00 | 74 | 1009.2 |
| 20260506233409 | 15 | 174 | 4.8 | 14.5 | 0.00 | 0.00 | 0.00 | 73 | 1009.2 |
| 20260506232909 | 15 | 175 | 3.2 | 14.5 | 0.00 | 0.00 | 0.00 | 72 | 1009.2 |
| 20260506232409 | 16 | 181 | 3.2 | 11.3 | 0.00 | 0.00 | 0.00 | 72 | 1009.2 |
| 20260506231410 | 16 | 190 | 3.2 | 12.9 | 0.00 | 0.00 | 0.00 | 71 | 1009.1 |
| 20260506230910 | 16 | 188 | 1.6 | 8.0 | 0.00 | 0.00 | 0.00 | 71 | 1009.1 |
| 20260506230409 | 16 | 188 | 3.2 | 8.0 | 0.00 | 0.00 | 0.00 | 71 | 1009.2 |
| 20260506225909 | 16 | 189 | 3.2 | 8.0 | 0.00 | 0.00 | 0.00 | 71 | 1009.1 |
| 20260506224909 | 16 | 183 | 3.2 | 11.3 | 0.00 | 0.00 | 0.00 | 71 | 1009.2 |
| 20260506224410 | 16 | 186 | 3.2 | 11.3 | 0.00 | 0.00 | 0.00 | 71 | 1009.1 |
| 20260506223909 | 16 | 182 | 3.2 | 12.9 | 0.00 | 0.00 | 0.00 | 71 | 1009.2 |
| 20260506223409 | 16 | 184 | 6.4 | 14.5 | 0.00 | 0.00 | 0.00 | 71 | 1009.2 |
| 20260506222909 | 16 | 185 | 6.4 | 14.5 | 0.00 | 0.00 | 0.00 | 70 | 1009.2 |
| 20260506222409 | 16 | 188 | 6.4 | 14.5 | 0.00 | 0.00 | 0.00 | 70 | 1009.3 |
| 20260506221910 | 16 | 186 | 4.8 | 14.5 | 0.00 | 0.00 | 0.00 | 70 | 1009.3 |
| 20260506221409 | 16 | 183 | 4.8 | 14.5 | 0.00 | 0.00 | 0.00 | 69 | 1009.2 |
| 20260506220909 | 17 | 185 | 6.4 | 14.5 | 0.00 | 0.00 | 0.00 | 68 | 1009.2 |
| 20260506215909 | 17 | 210 | 3.2 | 11.3 | 0.00 | 0.00 | 0.00 | 67 | 1009.2 |
| 20260506215409 | 17 | 207 | 4.8 | 12.9 | 0.00 | 0.00 | 0.00 | 67 | 1009.1 |
| 20260506213409 | 17 | 209 | 6.4 | 12.9 | 0.00 | 0.00 | 0.00 | 64 | 1009.2 |
| 20260506212910 | 17 | 202 | 6.4 | 16.1 | 0.00 | 0.00 | 0.00 | 63 | 1009.2 |
| 20260506212409 | 17 | 212 | 6.4 | 16.1 | 0.00 | 0.00 | 0.00 | 63 | 1009.1 |
| 20260506211910 | 17 | 222 | 6.4 | 14.5 | 0.00 | 0.00 | 0.00 | 62 | 1009.1 |
| 20260506211408 | 17 | 225 | 8.0 | 14.5 | 0.00 | 0.00 | 0.00 | 62 | 1009.1 |
| 20260506210409 | 17 | 226 | 6.4 | 12.9 | 0.00 | 0.00 | 0.00 | 60 | 1008.9 |
| 20260506205910 | 18 | 226 | 6.4 | 12.9 | 0.00 | 0.00 | 0.00 | 59 | 1008.8 |
| 20260506205408 | 18 | 214 | 4.8 | 11.3 | 0.00 | 0.00 | 0.00 | 59 | 1008.6 |
| 20260506204909 | 18 | 216 | 4.8 | 11.3 | 0.00 | 0.00 | 0.00 | 59 | 1008.7 |
| 20260506204409 | 18 | 227 | 6.4 | 12.9 | 0.00 | 0.00 | 0.00 | 58 | 1008.7 |
| 20260506203909 | 18 | 225 | 6.4 | 12.9 | 0.00 | 0.00 | 0.00 | 58 | 1008.6 |
| 20260506203409 | 18 | 228 | 6.4 | 11.3 | 0.00 | 0.00 | 0.00 | 57 | 1008.6 |
| 20260506202409 | 18 | 233 | 8.0 | 16.1 | 0.00 | 0.00 | 0.00 | 56 | 1008.3 |
| 20260506201409 | 18 | 229 | 9.7 | 17.7 | 0.00 | 0.00 | 0.00 | 55 | 1008.3 |
| 20260506200908 | 18 | 229 | 9.7 | 17.7 | 0.00 | 0.00 | 0.00 | 54 | 1008.2 |
| 20260506200408 | 19 | 232 | 8.0 | 17.7 | 0.00 | 0.00 | 0.00 | 54 | 1008.3 |
| 20260506195910 | 19 | 236 | 8.0 | 17.7 | 0.00 | 0.00 | 0.00 | 54 | 1008.1 |
| 20260506194908 | 19 | 233 | 6.4 | 14.5 | 0.00 | 0.00 | 0.00 | 53 | 1007.9 |
| 20260506192413 | 20 | 239 | 11.3 | 19.3 | 0.00 | 0.00 | 0.00 | 50 | 1012.7 |
| 20260506191913 | 20 | 240 | 11.3 | 19.3 | 0.00 | 0.00 | 0.00 | 50 | 1012.7 |
| 20260506190913 | 21 | 237 | 6.4 | 17.7 | 0.00 | 0.00 | 0.00 | 49 | 1012.7 |
| 20260506190413 | 21 | 246 | 9.7 | 17.7 | 0.00 | 0.00 | 0.00 | 48 | 1012.7 |
| 20260506185914 | 21 | 243 | 9.7 | 19.3 | 0.00 | 0.00 | 0.00 | 48 | 1012.7 |
| 20260506185413 | 21 | 235 | 9.7 | 19.3 | 0.00 | 0.00 | 0.00 | 48 | 1012.7 |
| 20260506184914 | 21 | 251 | 8.0 | 17.7 | 0.00 | 0.00 | 0.00 | 47 | 1012.7 |
| 20260506184413 | 21 | 247 | 11.3 | 20.9 | 0.00 | 0.00 | 0.00 | 47 | 1012.7 |
| 20260506183914 | 22 | 240 | 12.9 | 20.9 | 0.00 | 0.00 | 0.00 | 47 | 1012.7 |
| 20260506183413 | 22 | 253 | 9.7 | 19.3 | 0.00 | 0.00 | 0.00 | 46 | 1012.7 |
| 20260506182913 | 22 | 266 | 9.7 | 22.5 | 0.00 | 0.00 | 0.00 | 45 | 1012.7 |
| 20260506182415 | 22 | 266 | 8.0 | 22.5 | 0.00 | 0.00 | 0.00 | 43 | 1012.7 |
| 20260506181913 | 23 | 280 | 8.0 | 16.1 | 0.00 | 0.00 | 0.00 | 42 | 1012.7 |
| 20260506181414 | 23 | 308 | 8.0 | 19.3 | 0.00 | 0.00 | 0.00 | 41 | 1012.7 |
| 20260506180913 | 23 | 261 | 8.0 | 19.3 | 0.00 | 0.00 | 0.00 | 40 | 1012.7 |
| 20260506175915 | 23 | 257 | 9.7 | 22.5 | 0.00 | 0.00 | 0.00 | 39 | 1012.7 |
| 20260506175414 | 23 | 257 | 8.0 | 22.5 | 0.00 | 0.00 | 0.00 | 38 | 1012.7 |
| 20260506174913 | 23 | 256 | 9.7 | 17.7 | 0.00 | 0.00 | 0.00 | 38 | 1012.7 |
| 20260506174413 | 24 | 254 | 8.0 | 19.3 | 0.00 | 0.00 | 0.00 | 37 | 1012.7 |
| 20260506173913 | 24 | 245 | 8.0 | 19.3 | 0.00 | 0.00 | 0.00 | 38 | 1012.7 |
| 20260506172914 | 24 | 222 | 8.0 | 19.3 | 0.00 | 0.00 | 0.00 | 38 | 1012.7 |
| 20260506172413 | 24 | 225 | 8.0 | 17.7 | 0.00 | 0.00 | 0.00 | 37 | 1012.7 |
| 20260506171913 | 24 | 240 | 6.4 | 17.7 | 0.00 | 0.00 | 0.00 | 37 | 1012.7 |
| 20260506170914 | 24 | 229 | 9.7 | 20.9 | 0.00 | 0.00 | 0.00 | 38 | 1012.7 |
| 20260506165914 | 24 | 244 | 9.7 | 19.3 | 0.00 | 0.00 | 0.00 | 38 | 1012.7 |
| 20260506165413 | 24 | 262 | 8.0 | 19.3 | 0.00 | 0.00 | 0.00 | 37 | 1012.7 |
| 20260506164913 | 25 | 271 | 6.4 | 19.3 | 0.00 | 0.00 | 0.00 | 37 | 1012.7 |
| 20260506164413 | 25 | 240 | 8.0 | 20.9 | 0.00 | 0.00 | 0.00 | 37 | 1012.7 |
| 20260506163913 | 24 | 253 | 9.7 | 20.9 | 0.00 | 0.00 | 0.00 | 36 | 1012.7 |
| 20260506163413 | 25 | 256 | 9.7 | 19.3 | 0.00 | 0.00 | 0.00 | 36 | 1012.7 |
| 20260506162913 | 25 | 233 | 9.7 | 20.9 | 0.00 | 0.00 | 0.00 | 36 | 1012.7 |
| 20260506161914 | 25 | 242 | 11.3 | 24.1 | 0.00 | 0.00 | 0.00 | 36 | 1012.7 |
| 20260506160913 | 25 | 241 | 11.3 | 24.1 | 0.00 | 0.00 | 0.00 | 35 | 1012.7 |
| 20260506155414 | 25 | 178 | 3.2 | 9.7 | 0.00 | 0.00 | 0.00 | 34 | 1012.7 |
| 20260506154913 | 25 | 145 | 3.2 | 6.4 | 0.00 | 0.00 | 0.00 | 32 | 1012.7 |
| 20260506154413 | 25 | 189 | 4.8 | 9.7 | 0.00 | 0.00 | 0.00 | 33 | 1012.7 |
| 20260506153914 | 25 | 186 | 6.4 | 14.5 | 0.00 | 0.00 | 0.00 | 33 | 1012.7 |
| 20260506153414 | 25 | 161 | 6.4 | 16.1 | 0.00 | 0.00 | 0.00 | 32 | 1012.7 |
| 20260506152413 | 25 | 202 | 3.2 | 12.9 | 0.00 | 0.00 | 0.00 | 32 | 1012.7 |
| 20260506151912 | 25 | 297 | 3.2 | 6.4 | 0.00 | 0.00 | 0.00 | 31 | 1012.7 |
| 20260506151414 | 25 | 339 | 3.2 | 6.4 | 0.00 | 0.00 | 0.00 | 31 | 1012.7 |
| 20260506150914 | 25 | 6 | 3.2 | 4.8 | 0.00 | 0.00 | 0.00 | 29 | 1012.7 |
| 20260506150413 | 25 | 312 | 3.2 | 8.0 | 0.00 | 0.00 | 0.00 | 30 | 1012.7 |
| 20260506145913 | 25 | 266 | 4.8 | 14.5 | 0.00 | 0.00 | 0.00 | 30 | 1012.7 |
| 20260506145414 | 25 | 216 | 4.8 | 14.5 | 0.00 | 0.00 | 0.00 | 31 | 1012.7 |